Location: Alvediston
(51.0078°N, 2.0364°W)
Time: 04:43:56
(UTC+00:00)

SPOT 3 Rocket - Pass Details

Date: 27 February 2020
Orbit: 779 x 794 km, 98.8° (Epoch: 29 March)

Event Time Altitude Azimuth Distance (km) Brightness Sun altitude
Exits shadow 19:13:09 17° 126° (SE) 1,905 5.0 -14.7°
Maximum altitude 19:16:43 41° 64° (ENE) 1,151 4.0 -15.2°
Drops below altitude 10° 19:21:35 10° 356° (N) 2,375 6.2 -16.0°
Sets 19:24:02 0° 350° (N) 3,310 7.0 -16.4°
